Menomonie, WI

2:34 AM CST on December 09, 2019 (GMT -0600)
Menomonie

Weather History for KLUM - November, 2019

Change the Weather History Date:

Saturday, November 16, 2019

  Actual Average (KEAU) Record (KEAU)
Temperature  
Mean Temperature 31 °F -  
Max Temperature 40 °F 41 °F 70 °F (1953)
Min Temperature 22 °F 23 °F -1 °F (1933)
Degree Days  
Heating Degree Days 34    
Moisture  
Dew Point 22 °F    
Average Humidity 71    
Maximum Humidity 84    
Minimum Humidity 57    
Precipitation  
Precipitation 0.00 in - - ()
Sea Level Pressure  
Sea Level Pressure 30.18 in    
Wind  
Wind Speed 6 mph ()    
Max Wind Speed 15 mph    
Max Gust Speed 21 mph    
Visibility 9.8 miles    
Events      
Averages and records for this station are not official NWS values.
T = Trace of Precipitation, MM = Missing Value Source: Averaged Metar Reports

Daily Weather History Graph

Daily Weather History Graph

Search for Another Location

Airport or City:

Astronomy

Nov. 16, 2019 Rise Set
Actual Time 7:05 AM CST 4:38 PM CST
Civil Twilight 6:34 AM CST 5:09 PM CST
Nautical Twilight 5:58 AM CST 5:45 PM CST
Astronomical Twilight 5:23 AM CST 6:19 PM CST
Moon 8:06 PM CST (11/16) 11:04 AM CST (11/16)
Length of Visible Light 10h 35m
Length of Day
9h 32m
Waning Gibbous, 82% of the Moon is Illuminated
Nov 16
Waning Gibbous
Nov 19
Last Quarter
Nov 26
New
Dec 4
First Quarter
Dec 11
Full

Hourly Weather History & Observations

Time (CST) Temp. Windchill Dew Point Humidity Pressure Visibility Wind Dir Wind Speed Gust Speed Precip Events Conditions
12:15 AM 22.6 °F - 13.1 °F 67% 30.35 in 5.0 mi Calm Calm - N/A   Haze
12:35 AM 22.6 °F 18.0 °F 13.1 °F 67% 30.34 in 10.0 mi ESE 3.5 mph - N/A   Clear
1:15 AM 22.5 °F 16.3 °F 13.1 °F 67% 30.33 in 10.0 mi ESE 4.6 mph - N/A   Clear
1:35 AM 22.1 °F 15.9 °F 14.5 °F 73% 30.32 in 10.0 mi ESE 4.6 mph - N/A   Clear
1:55 AM 22.6 °F 16.5 °F 14.5 °F 71% 30.32 in 10.0 mi ESE 4.6 mph - N/A   Clear
2:15 AM 23.0 °F - 14.9 °F 71% 30.32 in 10.0 mi Calm Calm - N/A   Clear
2:35 AM 23.0 °F 17.0 °F 14.4 °F 70% 30.32 in 10.0 mi ESE 4.6 mph - N/A   Clear
2:55 AM 23.0 °F 18.4 °F 14.9 °F 71% 30.31 in 10.0 mi East 3.5 mph - N/A   Clear
3:15 AM 23.4 °F 17.4 °F 15.4 °F 72% 30.31 in 10.0 mi ESE 4.6 mph - N/A   Clear
3:35 AM 23.7 °F 19.3 °F 15.1 °F 70% 30.31 in 10.0 mi East 3.5 mph - N/A   Clear
3:55 AM 23.9 °F 18.0 °F 15.6 °F 71% 30.30 in 10.0 mi East 4.6 mph - N/A   Clear
4:35 AM 24.8 °F 19.1 °F 17.2 °F 73% 30.29 in 10.0 mi East 4.6 mph - N/A   Clear
4:55 AM 25.7 °F 19.0 °F 18.1 °F 73% 30.28 in 10.0 mi East 5.8 mph - N/A   Clear
5:15 AM 26.6 °F 20.0 °F 19.2 °F 74% 30.29 in 10.0 mi East 5.8 mph - N/A   Clear
5:35 AM 27.1 °F 18.9 °F 20.3 °F 75% 30.28 in 10.0 mi ESE 8.1 mph - N/A   Clear
5:55 AM 26.6 °F 19.1 °F 20.3 °F 77% 30.28 in 10.0 mi East 6.9 mph - N/A   Clear
6:15 AM 26.2 °F 19.6 °F 20.3 °F 78% 30.28 in 10.0 mi East 5.8 mph - N/A   Clear
6:35 AM 26.1 °F 18.4 °F 20.7 °F 80% 30.28 in 10.0 mi East 6.9 mph - N/A   Clear
6:55 AM 25.7 °F 19.0 °F 20.8 °F 82% 30.28 in 10.0 mi East 5.8 mph - N/A   Clear
7:15 AM 25.5 °F 17.8 °F 21.0 °F 83% 30.28 in 10.0 mi East 6.9 mph - N/A   Clear
7:35 AM 25.7 °F 17.1 °F 21.6 °F 84% 30.28 in 10.0 mi ESE 8.1 mph - N/A   Clear
7:55 AM 26.6 °F 18.2 °F 21.9 °F 82% 30.28 in 7.0 mi ESE 8.1 mph - N/A   Clear
8:15 AM 27.0 °F 17.3 °F 22.1 °F 82% 30.28 in 10.0 mi ESE 10.4 mph - N/A   Clear
8:35 AM 28.8 °F 19.5 °F 22.8 °F 78% 30.28 in 10.0 mi ESE 10.4 mph - N/A   Clear
8:55 AM 29.1 °F 20.6 °F 22.8 °F 77% 30.27 in 10.0 mi ESE 9.2 mph - N/A   Clear
9:15 AM 30.2 °F 21.9 °F 23.0 °F 75% 30.27 in 10.0 mi ESE 9.2 mph - N/A   Clear
9:35 AM 31.5 °F 24.2 °F 23.4 °F 72% 30.26 in 10.0 mi ESE 8.1 mph - N/A   Clear
9:55 AM 32.0 °F 24.2 °F 23.4 °F 70% 30.25 in 10.0 mi SE 9.2 mph - N/A   Clear
10:15 AM 32.9 °F 25.3 °F 23.9 °F 69% 30.25 in 10.0 mi SE 9.2 mph - N/A   Scattered Clouds
10:35 AM 34.3 °F 25.9 °F 24.6 °F 68% 30.24 in 10.0 mi SE 11.5 mph - N/A   Scattered Clouds
10:55 AM 35.8 °F 26.9 °F 24.6 °F 64% 30.23 in 10.0 mi ESE 13.8 mph 19.6 mph N/A   Scattered Clouds
11:15 AM 35.8 °F 27.8 °F 24.3 °F 63% 30.22 in 10.0 mi SE 11.5 mph 16.1 mph N/A   Scattered Clouds
11:35 AM 36.1 °F 28.2 °F 24.4 °F 63% 30.21 in 10.0 mi ESE 11.5 mph - N/A   Scattered Clouds
11:55 AM 36.9 °F 28.2 °F 24.6 °F 61% 30.20 in 10.0 mi SE 13.8 mph 20.7 mph N/A   Scattered Clouds
12:15 PM 38.5 °F 29.9 °F 24.6 °F 58% 30.18 in 10.0 mi SE 15.0 mph 20.7 mph N/A   Clear
12:55 PM 38.3 °F 30.1 °F 24.8 °F 58% 30.17 in 10.0 mi SE 13.8 mph 18.4 mph N/A   Clear
1:35 PM 38.3 °F 30.1 °F 25.5 °F 60% 30.14 in 10.0 mi SE 13.8 mph 19.6 mph N/A   Clear
1:55 PM 40.1 °F 32.0 °F 26.1 °F 57% 30.13 in 10.0 mi SE 15.0 mph - N/A   Clear
2:15 PM 39.2 °F 33.0 °F 26.1 °F 59% 30.12 in 10.0 mi ESE 9.2 mph 19.6 mph N/A   Clear
2:35 PM 39.4 °F 31.4 °F 25.9 °F 58% 30.11 in 10.0 mi SE 13.8 mph 18.4 mph N/A   Clear
2:55 PM 38.5 °F 30.7 °F 25.3 °F 59% 30.11 in 10.0 mi SE 12.7 mph 17.3 mph N/A   Clear
3:15 PM 37.0 °F 28.9 °F 24.8 °F 61% 30.10 in 10.0 mi ESE 12.7 mph - N/A   Scattered Clouds
3:35 PM 36.5 °F 28.2 °F 24.8 °F 63% 30.10 in 10.0 mi SE 12.7 mph - N/A   Scattered Clouds
3:55 PM 36.5 °F 27.8 °F 24.8 °F 63% 30.09 in 10.0 mi SE 13.8 mph 17.3 mph N/A   Clear
4:15 PM 36.1 °F 27.3 °F 24.6 °F 63% 30.08 in 10.0 mi SE 13.8 mph - N/A   Scattered Clouds
4:35 PM 36.0 °F 28.5 °F 24.6 °F 63% 30.08 in 10.0 mi SE 10.4 mph - N/A   Mostly Cloudy
4:55 PM 35.6 °F 28.0 °F 24.6 °F 64% 30.07 in 10.0 mi ESE 10.4 mph - N/A   Mostly Cloudy
5:15 PM 34.7 °F 28.1 °F 25.2 °F 68% 30.08 in 10.0 mi ESE 8.1 mph - N/A   Scattered Clouds
5:35 PM 34.5 °F 27.9 °F 25.5 °F 70% 30.07 in 10.0 mi ESE 8.1 mph - N/A   Clear
5:55 PM 34.7 °F 28.1 °F 25.5 °F 69% 30.07 in 10.0 mi ESE 8.1 mph - N/A   Scattered Clouds
6:15 PM 34.3 °F 27.7 °F 25.5 °F 70% 30.07 in 10.0 mi ESE 8.1 mph - N/A   Scattered Clouds
6:35 PM 34.0 °F 27.2 °F 25.7 °F 72% 30.07 in 10.0 mi ESE 8.1 mph - N/A   Scattered Clouds
6:55 PM 33.1 °F 26.1 °F 25.5 °F 74% 30.07 in 10.0 mi ESE 8.1 mph - N/A   Scattered Clouds
7:15 PM 32.5 °F 25.5 °F 25.3 °F 75% 30.06 in 10.0 mi ESE 8.1 mph - N/A   Clear
7:35 PM 32.5 °F 25.5 °F 24.8 °F 73% 30.06 in 10.0 mi ESE 8.1 mph - N/A   Clear
7:55 PM 32.0 °F - 23.9 °F 72% 30.07 in 10.0 mi Calm Calm - N/A   Clear
8:15 PM 31.8 °F - 23.4 °F 71% 30.07 in 10.0 mi Calm Calm - N/A   Clear
8:35 PM 30.9 °F 27.5 °F 23.2 °F 73% 30.07 in 10.0 mi ESE 3.5 mph - N/A   Clear
8:55 PM 30.2 °F 24.3 °F 23.4 °F 76% 30.06 in 10.0 mi ESE 5.8 mph - N/A   Clear
9:15 PM 29.3 °F 23.2 °F 23.0 °F 77% 30.06 in 10.0 mi ESE 5.8 mph - N/A   Clear
9:35 PM 28.9 °F 22.8 °F 23.0 °F 78% 30.06 in 10.0 mi ESE 5.8 mph - N/A   Clear
9:55 PM 29.7 °F 24.7 °F 23.4 °F 77% 30.06 in 10.0 mi SE 4.6 mph - N/A   Clear
10:15 PM 30.9 °F 25.2 °F 23.7 °F 75% 30.05 in 10.0 mi SE 5.8 mph - N/A   Clear
10:35 PM 31.8 °F 26.2 °F 23.9 °F 73% 30.05 in 10.0 mi ESE 5.8 mph - N/A   Scattered Clouds
10:55 PM 31.8 °F 26.2 °F 24.3 °F 74% 30.04 in 10.0 mi ESE 5.8 mph - N/A   Mostly Cloudy
11:15 PM 31.8 °F 27.3 °F 24.8 °F 75% 30.03 in 10.0 mi East 4.6 mph - N/A   Mostly Cloudy
11:35 PM 31.8 °F 28.5 °F 24.8 °F 75% 30.03 in 10.0 mi East 3.5 mph - N/A   Mostly Cloudy
11:55 PM 31.8 °F 28.5 °F 25.5 °F 78% 30.02 in 7.0 mi East 3.5 mph - N/A   Mostly Cloudy